OH2FDL-2 Weather Reports


Display with metric or nautical units.
time (UTC)temp
F
wind
direction
speed
MPH
gust
MPH
rain 1hr
in
rain 24hr
in
rain mn
in
humidity
%
barometer
mb
20260502123018 73 0.0 0.0 0.00 0.00 0.00 49 1004.5
20260502114518 69 0.0 0.0 0.00 0.00 0.00 53 1004.9
20260502113027 69 0.0 0.0 0.00 0.00 0.00 53 1005.0
20260502110024 70 0.0 0.0 0.00 0.00 0.00 52 1005.1
20260502104518 71 0.0 0.0 0.00 0.00 0.00 53 1005.2
20260502103018 71 0.0 0.0 0.00 0.00 0.00 53 1005.2
20260502101517 71 0.0 0.0 0.00 0.00 0.00 52 1005.3
20260502071518 57 0.0 0.0 0.00 0.00 0.00 10 1006.7
20260502070018 55 0.0 0.0 0.00 0.00 0.00 10 1006.7
20260502064517 54 0.0 0.0 0.00 0.00 0.00 10 1006.8
20260502063018 52 0.0 0.0 0.00 0.00 0.00 10 1006.8
20260502061521 50 0.0 0.0 0.00 0.00 0.00 10 1007.0
20260502060018 49 0.0 0.0 0.00 0.00 0.00 10 1007.1
20260502054517 46 0.0 0.0 0.00 0.00 0.00 10 1007.1
20260502053017 45 0.0 0.0 0.00 0.00 0.00 10 1007.1
20260502051517 43 0.0 0.0 0.00 0.00 0.00 10 1007.3
20260502044517 40 0.0 0.0 0.00 0.00 0.00 10 1007.4
20260502043018 40 0.0 0.0 0.00 0.00 0.00 10 1007.5
20260502040017 37 0.0 0.0 0.00 0.00 0.00 10 1007.8
20260502034518 36 0.0 0.0 0.00 0.00 0.00 10 1007.7
20260502033018 35 0.0 0.0 0.00 0.00 0.00 10 1007.6
20260502030023 34 0.0 0.0 0.00 0.00 0.00 10 1007.8
20260502024517 34 0.0 0.0 0.00 0.00 0.00 10 1008.0
20260502021517 35 0.0 0.0 0.00 0.00 0.00 10 1008.2
20260502020018 35 0.0 0.0 0.00 0.00 0.00 10 1008.6
20260502014519 35 0.0 0.0 0.00 0.00 0.00 10 1008.8
20260502013018 36 0.0 0.0 0.00 0.00 0.00 10 1008.7
20260502011523 36 0.0 0.0 0.00 0.00 0.00 10 1008.8
20260502010017 36 0.0 0.0 0.00 0.00 0.00 10 1008.8
20260502004518 37 0.0 0.0 0.00 0.00 0.00 10 1009.1
20260502003018 37 0.0 0.0 0.00 0.00 0.00 10 1009.2
20260502001518 38 0.0 0.0 0.00 0.00 0.00 10 1009.2
20260502000018 38 0.0 0.0 0.00 0.00 0.00 10 1009.5
20260501234518 39 0.0 0.0 0.00 0.00 0.00 10 1009.7
20260501231517 40 0.0 0.0 0.00 0.00 0.00 10 1009.9
20260501230018 40 0.0 0.0 0.00 0.00 0.00 10 1009.9
20260501223018 42 0.0 0.0 0.00 0.00 0.00 98 1009.9
20260501221518 42 0.0 0.0 0.00 0.00 0.00 96 1010.0
20260501220022 43 0.0 0.0 0.00 0.00 0.00 93 1010.1
20260501214518 44 0.0 0.0 0.00 0.00 0.00 91 1010.2
20260501213018 44 0.0 0.0 0.00 0.00 0.00 89 1010.4
20260501211519 45 0.0 0.0 0.00 0.00 0.00 86 1010.6
20260501210018 46 0.0 0.0 0.00 0.00 0.00 83 1010.8
20260501204518 47 0.0 0.0 0.00 0.00 0.00 80 1010.8
20260501203023 48 0.0 0.0 0.00 0.00 0.00 77 1010.8
20260501200018 50 0.0 0.0 0.00 0.00 0.00 70 1011.0
20260501194518 51 0.0 0.0 0.00 0.00 0.00 67 1011.0
20260501193019 51 0.0 0.0 0.00 0.00 0.00 65 1011.0
20260501191518 52 0.0 0.0 0.00 0.00 0.00 63 1011.1
20260501184518 55 0.0 0.0 0.00 0.00 0.00 59 1011.3
20260501181518 59 0.0 0.0 0.00 0.00 0.00 55 1011.4
20260501180018 60 0.0 0.0 0.00 0.00 0.00 55 1011.5
20260501174518 61 0.0 0.0 0.00 0.00 0.00 53 1011.4
20260501171518 64 0.0 0.0 0.00 0.00 0.00 50 1011.4
20260501170018 66 0.0 0.0 0.00 0.00 0.00 48 1011.3
20260501164518 67 0.0 0.0 0.00 0.00 0.00 45 1011.3
20260501163018 68 0.0 0.0 0.00 0.00 0.00 42 1011.4
20260501161519 70 0.0 0.0 0.00 0.00 0.00 40 1011.4
20260501160018 71 0.0 0.0 0.00 0.00 0.00 37 1011.5
20260501154517 71 0.0 0.0 0.00 0.00 0.00 36 1011.6
20260501153018 72 0.0 0.0 0.00 0.00 0.00 36 1011.7
20260501151517 72 0.0 0.0 0.00 0.00 0.00 36 1011.8
20260501150018 73 0.0 0.0 0.00 0.00 0.00 37 1012.0